• In Czech Republic
  • List of Countries
  • For 7 days
  • Water Temperature
  • Satellite Maps
  • Weather Map
  • Weather Widgets
  • user-avatar
    Login

    Hourly Weather Saurimo

    Today, 23 April, Monday

    Time Temperature Precipitation Wind Pressure Humidity
    00:00 +19°C° 0 mm 0 mps 671 mmHg 81%
    01:00 +18°C° 0 mm 0 mps 671 mmHg 84%
    02:00 +20°C° 0 mm 1 mps 670 mmHg 86%
    03:00 +19°C° 0 mm 1 mps 670 mmHg 88%
    04:00 +19°C° 0 mm 1 mps 670 mmHg 89%
    05:00 +20°C° 0 mm 1 mps 671 mmHg 87%
    06:00 +19°C° 0 mm 0 mps 671 mmHg 84%
    07:00 +19°C° 0 mm 0 mps 672 mmHg 81%
    08:00 +24°C° 0 mm 1 mps 672 mmHg 73%
    09:00 +26°C° 0 mm 1 mps 673 mmHg 64%
    10:00 +29°C° 0 mm 1 mps 673 mmHg 55%
    11:00 +29°C° 0 mm 2 mps 673 mmHg 52%
    12:00 +30°C° 0 mm 2 mps 672 mmHg 49%
    13:00 +31°C° 0 mm 2 mps 671 mmHg 46%
    14:00 +30°C° 0 mm 2 mps 671 mmHg 49%
    15:00 +30°C° 0 mm 2 mps 671 mmHg 52%
    16:00 +30°C° 0 mm 1 mps 670 mmHg 55%
    17:00 +28°C° 0 mm 1 mps 670 mmHg 60%
    18:00 +25°C° 0 mm 1 mps 670 mmHg 65%
    19:00 +23°C° 0 mm 1 mps 670 mmHg 70%
    20:00 +23°C° 0 mm 1 mps 670 mmHg 71%
    21:00 +20°C° 0 mm 0 mps 671 mmHg 73%
    22:00 +20°C° 0 mm 0 mps 671 mmHg 74%
    23:00 +19°C° 0 mm 0 mps 671 mmHg 76%

    Tomorrow, 24 April, Tuesday

    Time Temperature Precipitation Wind Pressure Humidity
    00:00 +21°C° 0 mm 1 mps 671 mmHg 78%
    01:00 +20°C° 0 mm 1 mps 670 mmHg 80%
    02:00 +20°C° 0 mm 1 mps 670 mmHg 80%
    03:00 +20°C° 0 mm 1 mps 670 mmHg 81%
    04:00 +19°C° 0 mm 1 mps 670 mmHg 81%
    05:00 +20°C° 0 mm 1 mps 671 mmHg 79%
    06:00 +20°C° 0 mm 2 mps 671 mmHg 78%
    07:00 +20°C° 0 mm 2 mps 672 mmHg 76%
    08:00 +24°C° 0 mm 2 mps 673 mmHg 68%
    09:00 +26°C° 0 mm 3 mps 673 mmHg 61%
    10:00 +28°C° 0 mm 3 mps 674 mmHg 53%
    11:00 +29°C° 0 mm 3 mps 673 mmHg 50%
    12:00 +30°C° 0 mm 3 mps 673 mmHg 47%
    13:00 +31°C° 0 mm 3 mps 672 mmHg 44%
    14:00 +31°C° 0 mm 2 mps 672 mmHg 47%
    15:00 +30°C° 0 mm 2 mps 671 mmHg 50%
    16:00 +30°C° 0 mm 1 mps 671 mmHg 53%
    17:00 +28°C° 0 mm 1 mps 671 mmHg 57%
    18:00 +26°C° 0 mm 1 mps 671 mmHg 62%
    19:00 +23°C° 0 mm 1 mps 671 mmHg 66%
    20:00 +23°C° 0 mm 1 mps 671 mmHg 67%
    21:00 +22°C° 0 mm 1 mps 671 mmHg 69%
    22:00 +22°C° 0 mm 1 mps 671 mmHg 70%
    23:00 +21°C° 0 mm 1 mps 671 mmHg 71%

    Day after tomorrow, 25 April, Wednesday

    Time Temperature Precipitation Wind Pressure Humidity
    00:00 +21°C° 0 mm 1 mps 671 mmHg 72%
    01:00 +20°C° 0 mm 1 mps 670 mmHg 74%
    02:00 +20°C° 0 mm 1 mps 670 mmHg 74%
    03:00 +19°C° 0 mm 2 mps 670 mmHg 75%
    04:00 +18°C° 0 mm 2 mps 670 mmHg 76%
    05:00 +19°C° 0 mm 2 mps 670 mmHg 75%
    06:00 +19°C° 0 mm 2 mps 671 mmHg 74%
    07:00 +20°C° 0 mm 2 mps 672 mmHg 74%
    08:00 +24°C° 0 mm 3 mps 672 mmHg 66%
    09:00 +26°C° 0 mm 3 mps 673 mmHg 58%
    10:00 +29°C° 0 mm 3 mps 674 mmHg 50%
    11:00 +29°C° 0 mm 3 mps 673 mmHg 48%
    12:00 +30°C° 0 mm 3 mps 672 mmHg 45%
    13:00 +31°C° 0 mm 3 mps 671 mmHg 43%
    14:00 +30°C° 0 mm 2 mps 671 mmHg 47%
    15:00 +29°C° 0 mm 2 mps 671 mmHg 50%
    16:00 +29°C° 0 mm 1 mps 670 mmHg 54%
    17:00 +27°C° 0 mm 1 mps 670 mmHg 57%
    18:00 +25°C° 0 mm 1 mps 670 mmHg 61%
    19:00 +24°C° 0 mm 1 mps 671 mmHg 64%
    20:00 +22°C° 0 mm 0 mps 671 mmHg 63%
    21:00 +22°C° 0 mm 0 mps 671 mmHg 62%
    22:00 +22°C° 0 mm 0 mps 672 mmHg 61%
    23:00 +21°C° 0 mm 0 mps 671 mmHg 62%

    26 April, Thursday

    Time Temperature Precipitation Wind Pressure Humidity
    00:00 +21°C° 0 mm 0 mps 671 mmHg 64%
    01:00 +21°C° 0 mm 0 mps 671 mmHg 65%
    02:00 +22°C° 0 mm 1 mps 670 mmHg 68%
    03:00 +21°C° 0 mm 1 mps 670 mmHg 70%
    04:00 +20°C° 0 mm 1 mps 670 mmHg 73%
    05:00 +21°C° 0 mm 1 mps 670 mmHg 73%
    06:00 +21°C° 0 mm 1 mps 671 mmHg 73%
    07:00 +21°C° 0 mm 1 mps 672 mmHg 73%
    08:00 +24°C° 0 mm 2 mps 672 mmHg 65%
    09:00 +26°C° 0 mm 2 mps 673 mmHg 58%
    10:00 +29°C° 0 mm 2 mps 673 mmHg 50%
    11:00 +29°C° 0 mm 2 mps 672 mmHg 46%
    12:00 +30°C° 0 mm 2 mps 672 mmHg 43%
    13:00 +31°C° 0 mm 2 mps 671 mmHg 39%
    14:00 +30°C° 0 mm 2 mps 671 mmHg 42%
    15:00 +30°C° 0 mm 2 mps 670 mmHg 45%
    16:00 +30°C° 0 mm 1 mps 670 mmHg 48%
    17:00 +27°C° 0 mm 1 mps 670 mmHg 53%
    18:00 +25°C° 0 mm 1 mps 670 mmHg 58%
    19:00 +23°C° 0 mm 1 mps 670 mmHg 63%
    20:00 +22°C° 0 mm 1 mps 670 mmHg 64%
    21:00 +22°C° 0 mm 1 mps 671 mmHg 65%
    22:00 +21°C° 0 mm 1 mps 671 mmHg 66%
    23:00 +21°C° 0 mm 1 mps 671 mmHg 67%

    27 April, Friday

    Time Temperature Precipitation Wind Pressure Humidity
    00:00 +21°C° 0 mm 1 mps 670 mmHg 68%
    01:00 +20°C° 0 mm 1 mps 670 mmHg 69%
    02:00 +19°C° 0 mm 2 mps 670 mmHg 69%
    03:00 +18°C° 0 mm 2 mps 670 mmHg 70%
    04:00 +18°C° 0 mm 2 mps 670 mmHg 71%
    05:00 +18°C° 0 mm 2 mps 670 mmHg 70%
    06:00 +18°C° 0 mm 2 mps 671 mmHg 69%
    07:00 +19°C° 0 mm 2 mps 671 mmHg 68%
    08:00 +21°C° 0 mm 3 mps 672 mmHg 61%
    09:00 +25°C° 0 mm 3 mps 672 mmHg 54%
    10:00 +27°C° 0 mm 3 mps 673 mmHg 47%
    11:00 +28°C° 0 mm 3 mps 672 mmHg 43%
    12:00 +29°C° 0 mm 2 mps 672 mmHg 40%
    13:00 +30°C° 0 mm 2 mps 671 mmHg 37%
    14:00 +30°C° 0 mm 2 mps 671 mmHg 40%
    15:00 +30°C° 0 mm 2 mps 670 mmHg 43%
    16:00 +29°C° 0 mm 1 mps 670 mmHg 46%
    17:00 +27°C° 0 mm 1 mps 670 mmHg 50%
    18:00 +25°C° 0 mm 1 mps 670 mmHg 55%
    19:00 +22°C° 0 mm 1 mps 670 mmHg 59%
    20:00 +22°C° 0 mm 1 mps 671 mmHg 60%
    21:00 +21°C° 0 mm 1 mps 671 mmHg 60%
    22:00 +21°C° 0 mm 1 mps 671 mmHg 61%
    23:00 +20°C° 0 mm 1 mps 671 mmHg 62%

    28 April, Saturday

    Time Temperature Precipitation Wind Pressure Humidity
    00:00 +20°C° 0 mm 1 mps 670 mmHg 63%
    01:00 +19°C° 0 mm 1 mps 670 mmHg 65%
    02:00 +19°C° 0 mm 1 mps 670 mmHg 66%
    03:00 +17°C° 0 mm 2 mps 670 mmHg 67%
    04:00 +17°C° 0 mm 2 mps 670 mmHg 69%
    05:00 +18°C° 0 mm 2 mps 670 mmHg 69%
    06:00 +18°C° 0 mm 2 mps 671 mmHg 69%
    07:00 +19°C° 0 mm 2 mps 672 mmHg 69%
    08:00 +21°C° 0 mm 2 mps 672 mmHg 62%
    09:00 +25°C° 0 mm 3 mps 673 mmHg 54%
    10:00 +28°C° 0 mm 3 mps 673 mmHg 47%
    11:00 +29°C° 0 mm 3 mps 673 mmHg 44%
    12:00 +30°C° 0 mm 2 mps 672 mmHg 40%
    13:00 +31°C° 0 mm 2 mps 671 mmHg 37%
    14:00 +30°C° 0 mm 2 mps 671 mmHg 40%
    15:00 +30°C° 0 mm 2 mps 671 mmHg 43%
    16:00 +29°C° 0 mm 1 mps 670 mmHg 46%
    17:00 +27°C° 0 mm 1 mps 671 mmHg 50%
    18:00 +25°C° 0 mm 1 mps 671 mmHg 54%
    19:00 +23°C° 0 mm 1 mps 671 mmHg 58%
    20:00 +23°C° 0 mm 1 mps 671 mmHg 59%
    21:00 +23°C° 0 mm 1 mps 671 mmHg 60%
    22:00 +22°C° 0 mm 1 mps 671 mmHg 61%
    23:00 +22°C° 0 mm 1 mps 671 mmHg 62%
    Show more